TimeCDT,TemperatureF,Dew PointF,Humidity,Sea Level PressureIn,VisibilityMPH,Wind Direction,Wind SpeedMPH,Gust SpeedMPH,PrecipitationIn,Events,Conditions,WindDirDegrees,DateUTC
12:15 AM,46.4,42.8,87,30.09,10.0,NW,11.5,19.6,N/A,,Overcast,320,2013-05-03 05:15:00
12:35 AM,46.4,42.8,87,30.09,8.0,NW,11.5,17.3,N/A,,Overcast,310,2013-05-03 05:35:00
12:55 AM,44.6,42.8,93,30.08,8.0,NW,8.1,18.4,N/A,,Overcast,310,2013-05-03 05:55:00
1:15 AM,44.6,42.8,93,30.07,7.0,WNW,8.1,-,0.01,,Overcast,290,2013-05-03 06:15:00
1:35 AM,44.6,41.0,87,30.07,8.0,NW,10.4,16.1,0.07,,Overcast,320,2013-05-03 06:35:00
1:55 AM,44.6,42.8,93,30.06,9.0,NW,8.1,-,0.10,,Overcast,310,2013-05-03 06:55:00
2:15 AM,44.6,42.8,93,30.05,10.0,NW,9.2,16.1,N/A,,Overcast,310,2013-05-03 07:15:00
2:35 AM,42.8,39.2,87,30.04,5.0,WNW,11.5,18.4,0.02,,Overcast,300,2013-05-03 07:35:00
2:55 AM,42.8,39.2,87,30.04,4.0,NW,9.2,23.0,0.03,,Overcast,310,2013-05-03 07:55:00
3:15 AM,42.8,39.2,87,30.04,3.0,NW,11.5,17.3,0.02,,Overcast,310,2013-05-03 08:15:00
3:35 AM,42.8,37.4,81,30.03,3.0,NW,9.2,24.2,0.04,,Overcast,310,2013-05-03 08:35:00
3:55 AM,42.8,39.2,87,30.03,5.0,NW,9.2,-,0.04,,Overcast,310,2013-05-03 08:55:00
4:15 AM,42.8,39.2,87,30.03,3.0,WNW,8.1,-,0.01,,Overcast,300,2013-05-03 09:15:00
4:35 AM,41.0,39.2,93,30.03,3.0,NW,9.2,18.4,0.01,,Overcast,310,2013-05-03 09:35:00
4:55 AM,41.0,37.4,87,30.02,4.0,NW,9.2,19.6,0.05,,Overcast,310,2013-05-03 09:55:00
5:15 AM,41.0,37.4,87,30.02,5.0,WNW,8.1,17.3,0.03,,Overcast,290,2013-05-03 10:15:00
5:35 AM,39.2,37.4,93,30.01,4.0,WNW,10.4,-,0.04,,Overcast,300,2013-05-03 10:35:00
5:55 AM,39.2,35.6,87,30.01,4.0,WNW,11.5,18.4,0.06,,Overcast,290,2013-05-03 10:55:00
6:15 AM,39.2,35.6,87,30.01,5.0,WNW,10.4,19.6,0.02,,Overcast,300,2013-05-03 11:15:00
6:35 AM,39.2,35.6,87,30.02,5.0,WNW,9.2,-,0.06,,Overcast,300,2013-05-03 11:35:00
6:55 AM,39.2,35.6,87,30.02,8.0,NW,9.2,17.3,0.09,,Overcast,310,2013-05-03 11:55:00
7:15 AM,39.2,37.4,93,30.03,5.0,WNW,5.8,-,0.03,,Overcast,290,2013-05-03 12:15:00
7:35 AM,39.2,35.6,87,30.02,5.0,NW,9.2,-,0.04,,Overcast,310,2013-05-03 12:35:00
7:55 AM,39.2,35.6,87,30.01,2.5,WNW,6.9,-,0.05,,Overcast,300,2013-05-03 12:55:00
8:15 AM,39.2,35.6,87,30.01,4.0,NW,9.2,-,0.01,,Overcast,310,2013-05-03 13:15:00
8:35 AM,39.2,37.4,93,30.00,7.0,NW,10.4,17.3,0.02,,Mostly Cloudy,310,2013-05-03 13:35:00
8:55 AM,39.2,35.6,87,30.00,10.0,NW,8.1,16.1,0.02,,Overcast,310,2013-05-03 13:55:00
9:15 AM,39.2,37.4,93,29.99,10.0,WNW,5.8,-,N/A,,Overcast,290,2013-05-03 14:15:00
9:35 AM,39.2,37.4,93,29.99,9.0,NW,8.1,17.3,N/A,,Overcast,310,2013-05-03 14:35:00
9:55 AM,39.2,37.4,93,30.00,9.0,NW,5.8,-,N/A,,Overcast,310,2013-05-03 14:55:00
10:15 AM,39.2,37.4,93,30.00,10.0,WNW,6.9,-,N/A,,Overcast,290,2013-05-03 15:15:00
10:35 AM,39.2,37.4,93,30.00,10.0,WNW,6.9,-,0.01,,Overcast,290,2013-05-03 15:35:00
10:55 AM,39.2,37.4,93,29.99,10.0,WNW,9.2,-,0.01,,Overcast,300,2013-05-03 15:55:00
11:15 AM,39.2,37.4,93,30.00,10.0,WNW,8.1,-,N/A,,Overcast,290,2013-05-03 16:15:00
11:35 AM,39.2,37.4,93,29.99,10.0,WNW,9.2,-,N/A,,Overcast,290,2013-05-03 16:35:00
11:55 AM,39.2,37.4,93,29.98,10.0,WNW,10.4,-,0.01,,Overcast,300,2013-05-03 16:55:00
12:15 PM,39.2,37.4,93,30.00,10.0,West,4.6,-,N/A,,Overcast,280,2013-05-03 17:15:00
12:35 PM,41.0,37.4,87,29.99,10.0,West,9.2,-,N/A,,Overcast,280,2013-05-03 17:35:00
12:55 PM,41.0,37.4,87,29.98,10.0,West,8.1,-,N/A,,Overcast,280,2013-05-03 17:55:00
1:15 PM,41.0,37.4,87,29.99,10.0,West,13.8,18.4,N/A,,Overcast,270,2013-05-03 18:15:00
1:35 PM,41.0,35.6,81,29.98,10.0,West,10.4,19.6,N/A,,Overcast,280,2013-05-03 18:35:00
1:55 PM,41.0,35.6,81,29.98,10.0,WNW,11.5,17.3,N/A,,Overcast,290,2013-05-03 18:55:00
2:15 PM,41.0,35.6,81,29.97,9.0,West,11.5,20.7,N/A,,Overcast,280,2013-05-03 19:15:00
2:35 PM,41.0,35.6,81,29.97,10.0,West,12.7,20.7,N/A,,Overcast,270,2013-05-03 19:35:00
2:55 PM,41.0,33.8,76,29.97,10.0,West,12.7,23.0,N/A,,Overcast,280,2013-05-03 19:55:00
3:15 PM,41.0,33.8,76,29.96,10.0,West,9.2,17.3,N/A,,Overcast,280,2013-05-03 20:15:00
3:35 PM,41.0,35.6,81,29.96,10.0,West,8.1,19.6,N/A,,Overcast,280,2013-05-03 20:35:00
3:55 PM,39.2,33.8,81,29.96,10.0,West,12.7,21.9,N/A,,Overcast,270,2013-05-03 20:55:00
4:15 PM,39.2,33.8,81,29.97,10.0,West,10.4,19.6,N/A,,Overcast,280,2013-05-03 21:15:00
4:35 PM,41.0,35.6,81,29.97,10.0,West,12.7,24.2,N/A,,Overcast,280,2013-05-03 21:35:00
4:55 PM,41.0,35.6,81,29.97,10.0,West,5.8,17.3,N/A,,Overcast,280,2013-05-03 21:55:00
5:15 PM,41.0,33.8,76,29.98,9.0,WNW,12.7,19.6,N/A,,Overcast,290,2013-05-03 22:15:00
5:35 PM,41.0,35.6,81,29.98,10.0,West,11.5,-,N/A,,Overcast,270,2013-05-03 22:35:00
5:55 PM,41.0,35.6,81,29.97,10.0,WNW,13.8,17.3,N/A,,Overcast,290,2013-05-03 22:55:00
6:15 PM,41.0,33.8,76,29.97,10.0,West,15.0,19.6,N/A,,Overcast,280,2013-05-03 23:15:00
6:35 PM,42.8,33.8,70,29.98,10.0,West,13.8,21.9,N/A,,Overcast,280,2013-05-03 23:35:00
6:55 PM,41.0,33.8,76,29.98,10.0,West,5.8,19.6,N/A,,Overcast,270,2013-05-03 23:55:00
7:15 PM,41.0,35.6,81,29.98,10.0,West,9.2,-,N/A,,Overcast,280,2013-05-04 00:15:00
7:35 PM,41.0,35.6,81,29.98,10.0,West,9.2,-,N/A,,Overcast,270,2013-05-04 00:35:00
7:55 PM,41.0,35.6,81,29.99,10.0,West,9.2,-,N/A,,Overcast,280,2013-05-04 00:55:00
8:15 PM,41.0,35.6,81,29.99,10.0,West,6.9,-,N/A,,Overcast,280,2013-05-04 01:15:00
8:35 PM,41.0,33.8,76,29.99,10.0,West,5.8,-,N/A,,Overcast,280,2013-05-04 01:35:00
8:55 PM,41.0,35.6,81,30.00,10.0,West,6.9,-,N/A,,Overcast,280,2013-05-04 01:55:00
9:15 PM,39.2,35.6,87,29.99,10.0,West,5.8,-,N/A,,Overcast,270,2013-05-04 02:15:00
9:35 PM,39.2,37.4,93,30.00,9.0,West,5.8,-,N/A,,Overcast,280,2013-05-04 02:35:00
9:55 PM,39.2,37.4,93,29.99,10.0,West,3.5,-,N/A,,Overcast,280,2013-05-04 02:55:00
10:15 PM,39.2,37.4,93,29.98,9.0,WNW,3.5,-,N/A,,Mostly Cloudy,300,2013-05-04 03:15:00
10:35 PM,39.2,37.4,93,29.98,10.0,Calm,Calm,-,N/A,,Mostly Cloudy,0,2013-05-04 03:35:00
10:55 PM,39.2,37.4,93,29.97,10.0,West,3.5,-,N/A,,Overcast,270,2013-05-04 03:55:00
11:15 PM,39.2,37.4,93,29.96,10.0,West,3.5,-,N/A,,Overcast,280,2013-05-04 04:15:00
11:35 PM,39.2,35.6,87,29.95,10.0,WNW,3.5,-,N/A,,Overcast,290,2013-05-04 04:35:00
11:55 PM,39.2,35.6,87,29.95,10.0,Calm,Calm,-,N/A,,Mostly Cloudy,0,2013-05-04 04:55:00